Location: *
(38.9555°S, 57.3572°E)
Time: 01:16:04
(UTC+00:00)

CORIOLIS - Pass Details

Date: 15 July 2020
Orbit: 819 x 838 km, 98.7° (Epoch: 06 August)

Event Time Altitude Azimuth Distance (km) Brightness Sun altitude
Exits shadow 14:15:29 - 162° (SSE) 3,393 7.0 -13.0°
Rises 14:15:30 0° 162° (SSE) 3,387 7.0 -13.0°
Reaches altitude 10° 14:17:57 10° 156° (SSE) 2,446 6.2 -13.5°
Maximum altitude 14:23:13 51° 80° (E) 1,030 4.3 -14.5°
Drops below altitude 10° 14:28:25 10° 4° (N) 2,417 6.7 -15.4°
Sets 14:30:49 0° 359° (N) 3,343 7.5 -15.9°
